Content
SEND FEEDBACK

Daily
Averages
Monthly
Summary
Malaysia

KUALA TERENGGANU, MALAYSIA


Home > Asia > Malaysia
Elevation: 10 feet     Latitude: 05 24N     Longitude: 103 06E

WEATHER
 
SELECT A DAY
Number of Records: 90,743;   Date Range: 7/17/00 - 7/23/14
 
SHARE

PRINT THIS DATA

[ ← Previous Day ]
WEATHER ALMANAC - JANUARY 31, 2013
[ Next Day → ]
[ °C ]   °F
Weather ElementAverageHighLow
Temperature82.5 °F87.8 °F (2:00 pm)78.8 °F (3:00 am)
Dewpoint76 °F77 °F (9:00 am)75.2 °F (1:00 am)
Humidity81 %89 % (3:00 am)70 % (2:00 pm)
Barometer29.93 in29.98 in (10:00 am)29.89 in (4:00 pm)
Wind Speed5.7 mph9.2 mph (3:00 pm)
Weather ElementAverage
Visibility6.2 mi
Wind DirectionENE (82.2 °)

Weather ElementTotal
Precipitation---
Cooling Degree Days18.3 (Base 65)
Growing Degree Days33.3 (Base 50)
Averaged from 23 records on January 31, 2013
WEATHER CONDITIONS BREAKOUT
WIND DIRECTION BREAKOUT
WEATHER BY HOUR - JANUARY 31, 2013
[ °C ]   °F
Local TimeTemperatureDewpointHumidityBarometerVisibilityWind DirectionWind SpeedGust SpeedPrecipitationEventsConditions
1:00 AM80.6 °F75.2 °F84 %29.95 in6.2 miENE (70°)4.6 mphMostly Cloudy
2:00 AM80.6 °F75.2 °F84 %29.95 in6.2 miENE (70°)3.5 mphMostly Cloudy
3:00 AM78.8 °F75.2 °F89 %29.92 in6.2 miSSE (150°)1.2 mphMostly Cloudy
4:00 AM78.8 °F75.2 °F89 %29.92 in6.2 miSouth (170°)2.3 mphMostly Cloudy
5:00 AM78.8 °F75.2 °F89 %29.92 in6.2 miSSE (160°)1.2 mphMostly Cloudy
6:00 AM80.6 °F75.2 °F84 %29.92 in6.2 miENE (70°)4.6 mphMostly Cloudy
7:00 AM80.6 °F75.2 °F84 %29.92 in6.2 miENE (70°)5.8 mphMostly Cloudy
8:00 AM80.6 °F75.2 °F84 %29.92 in6.2 miENE (70°)8.1 mphMostly Cloudy
9:00 AM82.4 °F77.0 °F84 %29.95 in6.2 miENE (70°)6.9 mphMostly Cloudy
10:00 AM82.4 °F75.2 °F79 %29.98 in6.2 miENE (70°)6.9 mphMostly Cloudy
11:00 AM86.0 °F77.0 °F74 %29.98 in6.2 miEast (80°)6.9 mphMostly Cloudy
12:00 PM86.0 °F77.0 °F74 %29.98 in6.2 miENE (70°)6.9 mphMostly Cloudy
1:00 PM86.0 °F77.0 °F74 %29.95 in6.2 miENE (70°)8.1 mphMostly Cloudy
2:00 PM87.8 °F77.0 °F70 %29.95 in6.2 miENE (70°)8.1 mphMostly Cloudy
3:00 PM86.0 °F75.2 °F70 %29.92 in6.2 miENE (70°)9.2 mphMostly Cloudy
4:00 PM86.0 °F77.0 °F74 %29.89 in6.2 miEast (80°)6.9 mphMostly Cloudy
5:00 PM84.2 °F77.0 °F79 %29.89 in6.2 miENE (70°)5.8 mphMostly Cloudy
6:00 PM84.2 °F77.0 °F79 %29.89 in6.2 miENE (60°)5.8 mphMostly Cloudy
7:00 PM82.4 °F77.0 °F84 %29.89 in6.2 miENE (70°)5.8 mphMostly Cloudy
8:00 PM82.4 °F75.2 °F79 %29.89 in6.2 miENE (70°)6.9 mphMostly Cloudy
9:00 PM80.6 °F77.0 °F89 %29.92 in6.2 miENE (70°)5.8 mphMostly Cloudy
10:00 PM80.6 °F75.2 °F84 %29.92 in6.2 miENE (70°)4.6 mphMostly Cloudy
11:00 PM80.6 °F75.2 °F84 %29.95 in6.2 miENE (70°)4.6 mphMostly Cloudy
Hourly data recorded from WMKN, located miles away from Kuala Terengganu, Malaysia







STORIES FROM OUR PARTNERS